#timestamp,LO_Frequency,Hit 
1503968415.5,286047003.6,N
1503968435.3,286046999.7,N
1503968455.2,286047001.5,N
1503968475.9,286046999.8,N
1503968495.7,286047005.5,P
1503968515.6,286047002.0,N
1503968535.4,286047002.8,N
1503968555.2,286047002.7,N
1503968575.1,286047002.2,N
1503968576.0,286047002.2,N
1503968595.8,286047000.1,N
1503968615.6,286047002.7,N
1503968635.5,286047002.5,N
1503968655.3,286047001.8,N
1503968675.1,286047003.9,P
1503968695.9,286047002.1,N
1503968715.7,286047000.4,N
1503968735.5,286047000.0,N
1503968755.4,286047000.0,N
1503968775.2,286046999.7,N
1503968795.0,286047002.8,N
1503968795.9,286047002.8,N
1503968815.8,286046998.6,N
1503968835.6,286047000.3,N
1503968855.4,286047001.6,N
1503968875.2,286047002.7,N
1503968895.1,286046999.7,N
1503968896.0,286046999.7,N
1503968915.8,286047002.0,N
1503968935.6,286047002.8,N
1503968955.5,286047001.5,N
1503968975.3,286047002.7,N
1503968995.1,286047002.1,N
1503969015.9,286047002.4,N
1503969035.7,286047002.7,N
1503969055.5,286047002.5,N
1503969075.4,286047001.4,N
1503969095.2,286047003.1,N
1503969115.0,286047003.4,N
1503969115.9,286047003.4,N
1503969135.8,286047003.6,N
1503969155.6,286047003.2,N
1503969175.4,286047004.2,N
1503969195.3,286047005.8,P
1503969215.1,286047003.5,N
1503969216.0,286047003.5,N
1503969235.8,286047002.1,N
1503969255.7,286047001.4,N
1503969275.5,286047001.5,N
1503969295.3,286047002.5,N
1503969315.2,286047005.7,P
1503969335.9,286047001.8,N
1503969355.7,286047003.9,N
1503969375.6,286047001.7,N
1503969395.4,286047003.6,N
1503969415.2,286047004.7,P
1503969435.1,286047001.0,N
1503969436.0,286047001.0,N
1503969455.8,286046999.4,N
1503969475.6,286046999.3,N
1503969495.5,286047000.9,N
1503969515.3,286046998.5,N
1503969535.1,286046999.0,N
1503969555.8,286046996.5,N
1503969575.7,286046998.3,N
1503969595.5,286046998.2,N
1503969615.3,286046998.8,N
1503969635.2,286046998.8,N
1503969655.9,286047000.8,N
1503969675.7,286047001.2,N
1503969695.6,286046996.9,N
1503969715.4,286046998.6,N
1503969735.2,286046999.8,N
1503969755.1,286047001.9,N
1503969756.0,286047001.9,N
1503969775.8,286047000.4,N
1503969795.6,286047001.0,N
1503969815.4,286046998.5,N
1503969835.3,286047001.0,N
1503969855.1,286047001.1,N
1503969875.8,286046999.0,N
1503969895.7,286046999.3,N
1503969915.5,286046996.5,N
1503969935.3,286047001.0,N
1503969955.2,286046999.8,N
1503969975.9,286046999.8,N
1503969995.7,286047000.2,N
1503970015.6,286046998.7,N
1503970035.4,286046998.8,N
1503970055.2,286046998.1,N
1503970075.1,286047001.7,N
1503970076.0,286047001.7,N
1503970095.8,286047003.8,N
1503970115.6,286047000.4,N
1503970135.4,286046999.8,N
1503970155.3,286047001.5,N
1503970175.1,286047004.0,N
1503970195.8,286047001.8,N
1503970215.7,286047001.8,N
1503970235.5,286047002.0,N
1503970255.3,286047004.4,N
1503970275.2,286047005.0,N
1503970295.9,286047003.5,N
1503970315.7,286047003.8,N
1503970335.6,286047005.5,N
1503970355.4,286047005.5,N
1503970375.3,286047003.0,N
1503970395.1,286047005.3,N
1503970396.0,286047005.3,N
1503970415.8,286047007.0,N
1503970435.7,286047008.9,P
1503970455.5,286047005.4,N
1503970475.4,286047003.3,N
1503970495.2,286047003.8,N
1503970515.0,286047005.7,N
1503970515.9,286047005.7,N
1503970535.8,286047005.4,N
1503970555.6,286047006.7,P
1503970575.6,286047001.5,N
1503970595.5,286047001.7,N
1503970615.3,286046999.8,N
1503970635.1,286047000.3,N
1503970655.9,286047002.2,N
1503970675.7,286047001.9,N
1503970695.5,286047001.0,N
1503970715.4,286047000.0,N
1503970735.2,286046999.5,N
1503970755.0,286047000.7,N
1503970755.9,286047000.7,N
1503970775.8,286047000.3,N
1503970795.6,286047000.2,N
1503970815.4,286046998.5,N
1503970835.2,286046999.9,N
1503970855.1,286047001.1,N
1503970856.0,286047001.1,N
1503970875.8,286047002.5,N
1503970895.6,286047000.2,N
1503970915.5,286046998.2,N
1503970935.3,286046999.3,N
1503970955.1,286047001.1,N
1503970975.9,286046998.1,N
1503970995.7,286047002.0,N
1503971015.5,286047004.1,N
1503971035.4,286047002.5,N
1503971055.2,286047002.7,N
1503971075.0,286047000.5,N
1503971075.9,286047000.5,N
1503971095.8,286047002.6,N
1503971115.6,286047003.1,N
1503971135.4,286047003.6,N
1503971155.2,286047003.9,N
1503971175.1,286047001.5,N
1503971176.0,286047001.5,N
1503971195.8,286047001.5,N
1503971215.6,286047003.0,N
1503971235.5,286047003.2,N
1503971255.3,286047002.5,N
1503971275.1,286047003.4,N
1503971295.9,286047005.6,P
1503971315.7,286047002.0,N
1503971335.5,286047002.3,N
1503971355.4,286047001.6,N
1503971375.2,286047001.4,N
1503971395.0,286046999.7,N
1503971395.9,286046999.7,N
1503971415.8,286047001.9,N
1503971435.6,286047001.7,N
1503971455.4,286047003.1,N
1503971475.3,286047003.9,N
1503971495.1,286047001.5,N
1503971496.0,286047001.5,N
1503971515.8,286047003.7,N
1503971535.7,286047003.6,N
1503971555.5,286047003.2,N
1503971575.3,286047003.0,N
1503971595.1,286047004.1,N
1503971615.9,286047001.4,N
1503971635.7,286047004.3,N
1503971655.5,286047004.3,N
1503971675.4,286047004.4,N
1503971695.2,286047004.9,P
1503971715.0,286047001.6,N
1503971715.9,286047001.6,N
1503971735.8,286047003.6,N
1503971755.6,286047004.2,P
1503971775.8,286047000.9,N
1503971795.6,286046999.0,N
1503971815.5,286046998.4,N
1503971835.3,286047000.9,N
1503971855.1,286047001.2,N
1503971875.9,286046998.5,N
1503971895.7,286047001.1,N
1503971915.5,286046999.6,N
1503971935.4,286046999.3,N
1503971955.2,286047000.1,N
1503971975.0,286047002.8,N
1503971975.9,286047002.8,N
1503971995.8,286047001.6,N
